sat.trackr.live / text

‹ back to catalog

STARLINK-37176

NORAD 68615 · 2026-073P

PAYLOAD ACTIVE UNKNOWN

§ Identity

Operator
Country
US
Launch date
2026-04-07
Launch site
AFWTR
Launch vehicle
Mass (kg)
RCS (m²)

Purposes: comms

External: N2YO · Heavens-Above · Gunter

§ Orbital elements

Epoch: 2026-09-19T18:42:53.163072Z

Period
93.91 min
Inclination
97.2868°
Eccentricity
0.0002551
Mean motion
15.33463682 rev/d
Perigee alt
463.7 km
Apogee alt
467.2 km
Semi-major
6,843.6 km
B*
3.7272e-4
RAAN
100.8613°
Arg perigee
112.2396°
Mean anomaly
247.9118°
Rev number
2,563

§ Raw data

STARLINK-371761 68615U 26073P   26262.77978198  .00011985  00000+0  37272-3 0  99952 68615  97.2868 100.8613 0002551 112.2396 247.9118 15.33463682 25633

JSON: /api/v1/satellites/68615 · /tle

For live sub-satellite position, see the globe view (requires WebGL).

§ Visibility from observer

Set your observer location to see the next 7 days of passes ≥ 10°. The values pass through the URL so the page stays shareable.

No JS? Fill the form by hand. The geolocation button needs JavaScript.